Погода в Орлово

Украина / Херсонская область     47°27′46″N   33°13′33″E
темп.,
°C
ветер,
м/с
пор.,
м/с
влажн.,
%
обл.,
%
осадки,
мм/ч
давл.,
гПа
погр.,
м
20 июня, вс
вс2000:00+20св61384100 0.8 1013362
03:00+19св51190100 6.4 1013386
06:00+18всв61486100 3.8 1012377
09:00+22в9136896 3.9 1012972
12:00+22в6106878 1.6 1012689
15:00+27в895333 1.6 10111596
18:00+26в585960 0.0 10111422
21:00+21вюв33750 0.0 101133
21 июня, пн
пн2100:00+19юв33800 0.0 101127
03:00+18ююв1185100 0.0 101111
06:00+19св128546 0.0 101120
09:00+24всв226746 0.0 1012442
12:00+28вюв12550 0.0 10111077
15:00+30всв22485 0.0 10111538
18:00+29всв43537 0.0 10111204
21:00+25св337010 0.1 101125
22 июня, вт
вт2200:00+23зюз118198 0.3 101118
03:00+21ссв487695 0.3 1010155
06:00+20св47872 0.9 1010181
09:00+25в57705 0.9 1011535
12:00+29в676362 0.0 10111262
15:00+30в655852 0.1 10111291
18:00+28всв58505 0.1 1011553
21:00+23вюв3466100 0.1 101164
23 июня, ср
ср2300:00+21юв377362 0.0 1012142
03:00+20ссв118292 0.0 101211
06:00+21ссз3377100 0.0 101238
09:00+26зсз11575 0.0 1013321
12:00+30ююз11465 0.0 10131024
15:00+32ююз11404 0.0 10132058
18:00+32всв224323 0.0 10131884
21:00+25вюв4869100 0.0 1014142
24 июня, чт
чт2400:00+24св117048 0.0 101411
03:00+22зсз3379100 0.6 101431
06:00+23с3683100 0.1 1014124
09:00+27св586388 0.1 1013379
12:00+31в554750 0.0 10141179
15:00+30всв5545100 0.0 10131243
18:00+27св3567100 0.4 1013352
21:00+23в498694 0.8 1013224